Regional Weather Roundup
Issued by NWS

Home | Current Version | Previous Version | Graphics & Text | Print | Product List | Glossary On
Versions: 1 2 3 4 5 6 7 8 9 10 11 12 13 14 15 16 17 18 19 20 21 22 23 24 25 26 27 28 29 30 31 32 33 34 35 36 37 38 39 40 41 42 43 44 45 46 47 48 49 50
000
ASUS45 KABQ 270001
RWRNM
WEATHER ROUNDUP FOR NEW MEXICO
NATIONAL WEATHER SERVICE ALBUQUERQUE NM
500 PM MST FRI DEC 26 2014

NOTE: "FAIR" MEANS FEW OR NO CLOUDS BELOW 12,000 FEET AGL WITH NO
       SIGNIFICANT WEATHER OR OBSTRUCTIONS TO VISION.

      THIS PRODUCT IS RELEASED AS TWO VERSIONS.  ONE VERSION NEAR
      THE TOP OF THE HOUR CONTAINING PRELIMINARY DATA FROM ALBUQUERQUE
      AND OTHER STATIONS.  A FINAL VERSION WITH ADDITIONAL DATA IS
      ISSUED ABOUT 10 MINUTES AFTER THE HOUR.

NMZ501-503-504-510>518-270100-
NORTHWEST PLATEAU/NORTHCENTRAL MOUNTAINS

CITY           SKY/WX    TMP DP  RH WIND       PRES   REMARKS
FARMINGTON     FLURRIES  27  21  78 W7        29.91R WCI  19
6HR MIN TEMP:  24; 6HR MAX TEMP:  31; 6HR PCP: TRACE;

SANTA FE       CLEAR     25  13  60 S7        29.88R WCI  17
6HR MIN TEMP:  23; 6HR MAX TEMP:  31; 6HR PCP: TRACE;

TAOS           PTCLDY    18  12  79 SW8       29.85R WCI   7

$$
NMZ402-403-502-505>509-270100-
WESTCENTRAL MOUNTAINS/SOUTHWEST MOUNTAINS

CITY           SKY/WX    TMP DP  RH WIND       PRES   REMARKS
GALLUP         CLOUDY    22  14  71 SW8       29.94R WCI  12
6HR MIN TEMP:  20; 6HR MAX TEMP:  25; 6HR PCP: TRACE;

GRANTS         CLEAR     23  11  60 NW7       29.94R WCI  15
SILVER CITY    CLEAR     37   1  22 NW21      29.93R WCI  27

$$
NMZ407-409-411-412-270100-
SOUTHERN DESERTS

CITY           SKY/WX    TMP DP  RH WIND       PRES   REMARKS
LORDSBURG      FAIR      41  12  30 NW16      29.93S
DEMING         PTCLDY    43  12  28 W14       29.92R
6HR MIN TEMP:  39; 6HR MAX TEMP:  47;

HOLLOMAN AFB   MOCLDY    43  27  52 S15       29.89R
ALAMOGORDO     MOCLDY    43  25  49 S12       29.91R
T OR C         CLEAR     44   1  16 N9        29.89R
6HR MIN TEMP:  44; 6HR MAX TEMP:  47;


$$
NMZ519>523-270100-
CENTRAL VALLEYS/CENTRAL HIGHLANDS

CITY           SKY/WX    TMP DP  RH WIND       PRES   REMARKS
ALBUQUERQUE    PTCLDY    35  11  36 W7        29.93R WCI  29
6HR MIN TEMP:  30; 6HR MAX TEMP:  37;

DOUBLE EAGLE   PTCLDY    30   9  40 W12       29.91R WCI  21
MORIARTY ARPT  FAIR      23  15  71 CALM      29.92R
6HR MIN TEMP:  23; 6HR MAX TEMP:  31;

CLINES CORNERS PTCLDY    16  10  77 W12       29.86R WCI   3
6HR MIN TEMP:  16; 6HR MAX TEMP:  28; 6HR PCP:  0.02;

BELEN          FAIR      33   9  37 W9        29.95R WCI  25
6HR MIN TEMP:  33; 6HR MAX TEMP:  38;

SOCORRO        FAIR      38  10  32 N9G25     29.94R WCI  31
6HR MIN TEMP:  38; 6HR MAX TEMP:  44;


$$
NMZ524>526-539-540-270100-
SOUTHCENTRAL MOUNTAINS

CITY           SKY/WX    TMP DP  RH WIND       PRES   REMARKS
RUIDOSO        NOT AVBL

$$
NMZ527>531-270100-
NORTHEAST HIGHLANDS/NORTHEAST PLAINS

CITY           SKY/WX    TMP DP  RH WIND       PRES   REMARKS
LAS VEGAS      PTCLDY    13  10  88 N6        29.86R WCI   4
6HR MIN TEMP:  13; 6HR MAX TEMP:  26; 6HR PCP:  0.09;

RATON          CLOUDY    17  14  88 CALM      29.88R
6HR MIN TEMP:  17; 6HR MAX TEMP:  24; 6HR PCP:  0.01;

CLAYTON        CLOUDY    23  18  81 N7        29.95R WCI  15
6HR MIN TEMP:  23; 6HR MAX TEMP:  27; 6HR PCP:  0.01;


$$
NMZ532>537-270100-
EASTCENTRAL PLAINS

CITY           SKY/WX    TMP DP  RH WIND       PRES   REMARKS
TUCUMCARI      CLEAR     24  21  88 E7        29.97R WCI  16
6HR MIN TEMP:  24; 6HR MAX TEMP:  31; 6HR PCP:  0.02;

CANNON AFB     MOCLDY    32  26  80 N13       29.95R WCI  22
6HR MIN TEMP:  32; 6HR MAX TEMP:  39;

CLOVIS AIRPORT CLEAR     30  23  74 N15       29.95R WCI  19

$$
NMZ028-029-538-270100-
SOUTHEAST PLAINS

CITY           SKY/WX    TMP DP  RH WIND       PRES   REMARKS
ROSWELL        CLOUDY    49  16  26 N8        29.89R
6HR MIN TEMP:  47; 6HR MAX TEMP:  54; 6HR PCP: TRACE;

ARTESIA        CLOUDY    45  30  57 S13       29.93R
CARLSBAD       CLOUDY    46  29  51 W17       29.91S
6HR MIN TEMP:  46; 6HR MAX TEMP:  53;

HOBBS          MOCLDY    45  36  70 W13       29.93R


$$


USA.gov is the U.S. government's official web portal to all federal, state and local government web resources and services.